When you browse on this site, cookies collect data to enhance your experience and personalize the content and advertising you see.
Visit our Privacy Policy to learn more. By continuing to use the site, you agree to this use of cookies and data.
  • Em Portugal
  • Lista de países
  • Para 7 dias
  • Temperatura da água
  • Mapas de satélite
  • Mapa do tempo
  • Widgets de tempo
  • user-avatar
    Iniciar Sessão

    Previsão horária em Gumnische

    Hoje, 26 Junho, Quarta-feira

    Tempo Temperatura Precipitação Vento Pressão Humidade
    00:00 +16°C° 0 mm 1 m/s 756 mmHg 82%
    01:00 +16°C° 0 mm 1 m/s 756 mmHg 83%
    02:00 +16°C° 0 mm 1 m/s 756 mmHg 79%
    03:00 +16°C° 0 mm 1 m/s 756 mmHg 80%
    04:00 +16°C° 0 mm 1 m/s 755 mmHg 81%
    05:00 +16°C° 0 mm 1 m/s 755 mmHg 83%
    06:00 +19°C° 0 mm 1 m/s 755 mmHg 78%
    07:00 +21°C° 0 mm 1 m/s 755 mmHg 73%
    08:00 +22°C° 0 mm 1 m/s 754 mmHg 68%
    09:00 +24°C° 0 mm 2 m/s 754 mmHg 66%
    10:00 +25°C° 0 mm 2 m/s 754 mmHg 63%
    11:00 +26°C° 0 mm 3 m/s 754 mmHg 60%
    12:00 +27°C° 0 mm 3 m/s 753 mmHg 59%
    13:00 +27°C° 0 mm 4 m/s 753 mmHg 57%
    14:00 +28°C° 0 mm 4 m/s 752 mmHg 55%
    15:00 +28°C° 0 mm 4 m/s 751 mmHg 59%
    16:00 +28°C° 0 mm 3 m/s 751 mmHg 62%
    17:00 +28°C° 0 mm 3 m/s 750 mmHg 65%
    18:00 +26°C° 0.1 mm 3 m/s 749 mmHg 70%
    19:00 +25°C° 0.1 mm 3 m/s 749 mmHg 74%
    20:00 +24°C° 0.1 mm 3 m/s 749 mmHg 79%
    21:00 +22°C° 0.2 mm 3 m/s 748 mmHg 81%
    22:00 +22°C° 0.2 mm 3 m/s 747 mmHg 83%
    23:00 +21°C° 0.2 mm 3 m/s 747 mmHg 85%

    Amanhã, 27 Junho, Quinta-feira

    Tempo Temperatura Precipitação Vento Pressão Humidade
    00:00 +21°C° 0.1 mm 3 m/s 746 mmHg 87%
    01:00 +20°C° 0.1 mm 3 m/s 745 mmHg 89%
    02:00 +20°C° 0.1 mm 3 m/s 745 mmHg 91%
    03:00 +20°C° 1.1 mm 4 m/s 744 mmHg 92%
    04:00 +20°C° 1.1 mm 4 m/s 743 mmHg 93%
    05:00 +20°C° 1.1 mm 4 m/s 742 mmHg 95%
    06:00 +21°C° 0.6 mm 5 m/s 741 mmHg 93%
    07:00 +22°C° 0.6 mm 5 m/s 741 mmHg 92%
    08:00 +23°C° 0.6 mm 6 m/s 740 mmHg 90%
    09:00 +24°C° 0.6 mm 6 m/s 739 mmHg 87%
    10:00 +26°C° 0.6 mm 6 m/s 739 mmHg 84%
    11:00 +26°C° 0.6 mm 6 m/s 738 mmHg 81%
    12:00 +26°C° 0.8 mm 7 m/s 738 mmHg 80%
    13:00 +26°C° 0.8 mm 7 m/s 737 mmHg 78%
    14:00 +24°C° 0.8 mm 7 m/s 737 mmHg 77%
    15:00 +23°C° 0.4 mm 7 m/s 737 mmHg 78%
    16:00 +22°C° 0.4 mm 7 m/s 737 mmHg 80%
    17:00 +21°C° 0.4 mm 8 m/s 737 mmHg 81%
    18:00 +20°C° 0.3 mm 7 m/s 737 mmHg 83%
    19:00 +17°C° 0.3 mm 7 m/s 737 mmHg 85%
    20:00 +15°C° 0.3 mm 6 m/s 737 mmHg 87%
    21:00 +15°C° 0 mm 6 m/s 737 mmHg 87%
    22:00 +14°C° 0 mm 6 m/s 738 mmHg 87%
    23:00 +14°C° 0 mm 6 m/s 738 mmHg 87%

    Depois de amanhã, 28 Junho, Sexta-feira

    Tempo Temperatura Precipitação Vento Pressão Humidade
    00:00 +14°C° 0 mm 6 m/s 738 mmHg 87%
    01:00 +13°C° 0 mm 6 m/s 738 mmHg 87%
    02:00 +13°C° 0 mm 6 m/s 738 mmHg 86%
    03:00 +13°C° 0 mm 6 m/s 738 mmHg 83%
    04:00 +12°C° 0 mm 7 m/s 738 mmHg 80%
    05:00 +12°C° 0 mm 7 m/s 738 mmHg 77%
    06:00 +12°C° 0 mm 7 m/s 738 mmHg 77%
    07:00 +13°C° 0 mm 8 m/s 738 mmHg 76%
    08:00 +13°C° 0 mm 8 m/s 738 mmHg 76%
    09:00 +13°C° 0 mm 8 m/s 738 mmHg 76%
    10:00 +13°C° 0 mm 8 m/s 738 mmHg 76%
    11:00 +13°C° 0 mm 8 m/s 738 mmHg 76%
    12:00 +13°C° 0.1 mm 8 m/s 738 mmHg 75%
    13:00 +13°C° 0.1 mm 8 m/s 738 mmHg 73%
    14:00 +15°C° 0.1 mm 8 m/s 739 mmHg 72%
    15:00 +15°C° 0.1 mm 8 m/s 739 mmHg 73%
    16:00 +15°C° 0.1 mm 8 m/s 739 mmHg 73%
    17:00 +14°C° 0.1 mm 7 m/s 739 mmHg 74%
    18:00 +14°C° 0.1 mm 7 m/s 739 mmHg 77%
    19:00 +13°C° 0.1 mm 6 m/s 740 mmHg 79%
    20:00 +13°C° 0.1 mm 5 m/s 740 mmHg 82%
    21:00 +12°C° 0 mm 5 m/s 740 mmHg 81%
    22:00 +10°C° 0 mm 5 m/s 740 mmHg 80%
    23:00 +10°C° 0 mm 5 m/s 740 mmHg 79%

    29 Junho, Sábado

    Tempo Temperatura Precipitação Vento Pressão Humidade
    00:00 +9°C° 0 mm 5 m/s 741 mmHg 75%
    01:00 +9°C° 0 mm 6 m/s 741 mmHg 71%
    02:00 +8°C° 0 mm 6 m/s 741 mmHg 67%
    03:00 +8°C° 0 mm 6 m/s 741 mmHg 67%
    04:00 +8°C° 0 mm 6 m/s 741 mmHg 67%
    05:00 +8°C° 0 mm 6 m/s 741 mmHg 67%
    06:00 +9°C° 0 mm 7 m/s 741 mmHg 64%
    07:00 +11°C° 0 mm 8 m/s 741 mmHg 61%
    08:00 +12°C° 0 mm 9 m/s 742 mmHg 58%
    09:00 +13°C° 0 mm 9 m/s 742 mmHg 56%
    10:00 +15°C° 0 mm 9 m/s 742 mmHg 54%
    11:00 +16°C° 0 mm 9 m/s 742 mmHg 52%
    12:00 +16°C° 0 mm 9 m/s 742 mmHg 51%
    13:00 +17°C° 0 mm 8 m/s 742 mmHg 51%
    14:00 +17°C° 0 mm 8 m/s 742 mmHg 51%
    15:00 +17°C° 0 mm 7 m/s 742 mmHg 53%
    16:00 +17°C° 0 mm 7 m/s 742 mmHg 55%
    17:00 +17°C° 0 mm 6 m/s 743 mmHg 57%
    18:00 +16°C° 0 mm 5 m/s 743 mmHg 61%
    19:00 +15°C° 0 mm 4 m/s 743 mmHg 65%
    20:00 +13°C° 0 mm 4 m/s 743 mmHg 69%
    21:00 +12°C° 0 mm 3 m/s 744 mmHg 71%
    22:00 +11°C° 0 mm 3 m/s 744 mmHg 73%
    23:00 +10°C° 0 mm 3 m/s 744 mmHg 74%

    30 Junho, Domingo

    Tempo Temperatura Precipitação Vento Pressão Humidade
    00:00 +10°C° 0 mm 3 m/s 744 mmHg 77%
    01:00 +9°C° 0 mm 3 m/s 744 mmHg 79%
    02:00 +9°C° 0 mm 3 m/s 745 mmHg 81%
    03:00 +9°C° 0 mm 3 m/s 745 mmHg 84%
    04:00 +9°C° 0 mm 3 m/s 745 mmHg 87%
    05:00 +10°C° 0 mm 3 m/s 745 mmHg 90%
    06:00 +12°C° 0 mm 3 m/s 746 mmHg 85%
    07:00 +14°C° 0 mm 3 m/s 746 mmHg 80%
    08:00 +17°C° 0 mm 3 m/s 746 mmHg 75%
    09:00 +18°C° 0 mm 3 m/s 746 mmHg 71%
    10:00 +19°C° 0 mm 4 m/s 747 mmHg 67%
    11:00 +20°C° 0 mm 4 m/s 747 mmHg 64%
    12:00 +21°C° 0.1 mm 5 m/s 747 mmHg 63%
    13:00 +22°C° 0.1 mm 5 m/s 747 mmHg 61%
    14:00 +22°C° 0.1 mm 5 m/s 747 mmHg 60%
    15:00 +22°C° 0.1 mm 5 m/s 747 mmHg 61%
    16:00 +22°C° 0.1 mm 5 m/s 747 mmHg 63%
    17:00 +22°C° 0.1 mm 4 m/s 747 mmHg 64%
    18:00 +21°C° 0 mm 3 m/s 747 mmHg 69%
    19:00 +19°C° 0 mm 2 m/s 747 mmHg 75%
    20:00 +19°C° 0 mm 1 m/s 747 mmHg 80%
    21:00 +18°C° 0 mm 1 m/s 747 mmHg 82%
    22:00 +16°C° 0 mm 1 m/s 747 mmHg 83%
    23:00 +16°C° 0 mm 2 m/s 747 mmHg 84%

    1 Julho, Segunda-feira

    Tempo Temperatura Precipitação Vento Pressão Humidade
    00:00 +15°C° 0 mm 2 m/s 747 mmHg 87%
    01:00 +15°C° 0 mm 2 m/s 747 mmHg 89%
    02:00 +15°C° 0 mm 2 m/s 747 mmHg 92%
    03:00 +15°C° 0 mm 2 m/s 747 mmHg 91%
    04:00 +14°C° 0 mm 3 m/s 747 mmHg 91%
    05:00 +16°C° 0 mm 3 m/s 746 mmHg 90%
    06:00 +17°C° 0 mm 3 m/s 746 mmHg 85%
    07:00 +19°C° 0 mm 4 m/s 746 mmHg 81%
    08:00 +21°C° 0 mm 4 m/s 745 mmHg 76%
    09:00 +23°C° 0 mm 5 m/s 745 mmHg 72%
    10:00 +25°C° 0 mm 5 m/s 745 mmHg 68%
    11:00 +27°C° 0 mm 5 m/s 744 mmHg 63%
    12:00 +28°C° 0 mm 5 m/s 744 mmHg 61%
    13:00 +28°C° 0 mm 5 m/s 743 mmHg 59%
    14:00 +29°C° 0 mm 6 m/s 743 mmHg 57%
    15:00 +28°C° 0.6 mm 5 m/s 742 mmHg 63%
    16:00 +28°C° 0.6 mm 5 m/s 742 mmHg 68%
    17:00 +28°C° 0.6 mm 4 m/s 742 mmHg 73%
    18:00 +26°C° 0.4 mm 4 m/s 742 mmHg 79%
    19:00 +24°C° 0.4 mm 3 m/s 742 mmHg 84%
    20:00 +22°C° 0.4 mm 3 m/s 742 mmHg 89%
    21:00 +20°C° 0 mm 3 m/s 742 mmHg 89%
    22:00 +19°C° 0 mm 3 m/s 742 mmHg 89%
    23:00 +17°C° 0 mm 3 m/s 742 mmHg 89%
    Mostrar mais